Powrót do katalogu

COSMOS 1932 DEB

AktywnyLEO
NORAD 38845·DEBRIS·🇷🇺 Russia

Wystrzelony Mar 14, 1988 z Baikonur Cosmodrome

Loading…

Następne Przeloty (najbliższe 24 godziny)

TLE

NieaktualneSource: Space-Track

Epoka: Sep 7, 2026, 11:29 UTC

1 38845U 88019G   26250.47902870  .00000037  00000-0  11645-3 0  9996
2 38845  65.0412 266.4672 0052980 220.1990 215.6785 13.81263198624938

Śledź COSMOS 1932 DEB w czasie rzeczywistym z AllMySat

Download on the App Store